Location: Devore Heights
(34.2372°N, 117.4156°W)
Time: 08:36:50
(UTC+00:00)

A-11 Canister half - Pass Details

Date: 16 September 2024
Orbit: 1515 x 1684 km, 47.2° (Epoch: 07 October)

Event Time Altitude Azimuth Distance (km) Brightness Sun altitude
Rises 00:09:12 0° 203° (SSW) 4,796 12.1 21.0°
Reaches altitude 10° 00:12:36 10° 196° (SSW) 3,788 11.5 20.3°
Maximum altitude 00:21:14 39° 131° (SE) 2,170 9.7 18.6°
Drops below altitude 10° 00:29:38 10° 67° (ENE) 3,696 10.5 16.8°
Sets 00:32:53 0° 60° (ENE) 4,669 11.0 16.2°
